DAL22 KBGR-KLGA

Flight info

Callsign DAL22
Flight time 1h 4m
Altitude 36000
Route ALB VADDR1
Aircraft B738/M-SDE2E3FGHIRWXY/LB1

Departure

Time 2026-05-04 22:19
Airport Bangor International Airport (KBGR)

Arrival

Time 2026-05-04 23:24
Airport LaGuardia Airport (KLGA)
Time Latitude Longitude Altitude Speed Heading
2026-05-04 21:53 44.80724 -68.81628 173 ft 0 kts
2026-05-04 22:09 44.80710 -68.81626 173 ft 2 kts 321°
2026-05-04 22:10 44.80705 -68.81620 173 ft 0 kts 296°
2026-05-04 22:14 44.80703 -68.81634 173 ft 4 kts 248°
2026-05-04 22:14 44.80650 -68.81683 173 ft 13 kts 210°
2026-05-04 22:15 44.80570 -68.81783 173 ft 15 kts 227°
2026-05-04 22:15 44.80485 -68.81830 173 ft 14 kts 150°
2026-05-04 22:15 44.80417 -68.81736 172 ft 13 kts 135°
2026-05-04 22:15 44.80350 -68.81640 171 ft 15 kts 134°
2026-05-04 22:16 44.80267 -68.81519 170 ft 19 kts 134°
2026-05-04 22:16 44.80163 -68.81369 168 ft 23 kts 134°
2026-05-04 22:16 44.80055 -68.81212 167 ft 22 kts 134°
2026-05-04 22:16 44.79950 -68.81060 166 ft 21 kts 134°
2026-05-04 22:17 44.79861 -68.81001 165 ft 11 kts 190°
2026-05-04 22:17 44.79798 -68.81050 165 ft 10 kts 216°
2026-05-04 22:17 44.79763 -68.81095 165 ft 0 kts 225°
2026-05-04 22:18 44.79733 -68.81141 166 ft 14 kts 227°
2026-05-04 22:18 44.79720 -68.81293 167 ft 18 kts 297°
2026-05-04 22:18 44.79958 -68.81684 169 ft 94 kts 314°
2026-05-04 22:19 44.80592 -68.82609 200 ft 165 kts 313°
2026-05-04 22:19 44.81450 -68.83873 799 ft 190 kts 311°
2026-05-04 22:19 44.82407 -68.85253 1677 ft 201 kts 314°
2026-05-04 22:19 44.83448 -68.86590 2438 ft 211 kts 318°
2026-05-04 22:20 44.84669 -68.88018 2685 ft 244 kts 316°
2026-05-04 22:20 44.85934 -68.89692 3471 ft 253 kts 315°
2026-05-04 22:20 44.87215 -68.91424 4381 ft 257 kts 314°
2026-05-04 22:20 44.88511 -68.93187 5292 ft 260 kts 314°
2026-05-04 22:21 44.89821 -68.94974 6179 ft 264 kts 314°
2026-05-04 22:21 44.91146 -68.96788 7036 ft 267 kts 314°
2026-05-04 22:21 44.92490 -68.98627 7890 ft 271 kts 314°
2026-05-04 22:21 44.93854 -69.00496 8724 ft 274 kts 314°
2026-05-04 22:22 44.95219 -69.02367 9540 ft 278 kts 314°
2026-05-04 22:22 44.96615 -69.04284 10009 ft 281 kts 314°
2026-05-04 22:22 44.98025 -69.06221 10219 ft 284 kts 314°
2026-05-04 22:22 44.99448 -69.08177 10223 ft 284 kts 314°
2026-05-04 22:23 45.00647 -69.10356 10225 ft 283 kts 290°
2026-05-04 22:23 45.00831 -69.13138 10439 ft 299 kts 258°
2026-05-04 22:23 45.00045 -69.15972 10649 ft 323 kts 243°
2026-05-04 22:23 44.98878 -69.18820 10909 ft 345 kts 239°
2026-05-04 22:24 44.97556 -69.21714 11515 ft 353 kts 237°
2026-05-04 22:24 44.96210 -69.24587 12270 ft 356 kts 237°
2026-05-04 22:24 44.94843 -69.27511 13020 ft 359 kts 237°
2026-05-04 22:24 44.93465 -69.30481 13725 ft 363 kts 238°
2026-05-04 22:25 44.92087 -69.33481 14405 ft 367 kts 238°
2026-05-04 22:25 44.90699 -69.36522 15077 ft 370 kts 238°
2026-05-04 22:25 44.89300 -69.39600 15738 ft 374 kts 238°
2026-05-04 22:25 44.87888 -69.42716 16390 ft 378 kts 238°
2026-05-04 22:26 44.86469 -69.45850 17021 ft 381 kts 238°
2026-05-04 22:26 44.85055 -69.48975 17619 ft 385 kts 238°
2026-05-04 22:26 44.83608 -69.52171 18209 ft 388 kts 238°
2026-05-04 22:26 44.82144 -69.55401 18785 ft 392 kts 238°
2026-05-04 22:27 44.80668 -69.58655 19349 ft 395 kts 238°
2026-05-04 22:27 44.79178 -69.61935 19901 ft 399 kts 238°
2026-05-04 22:27 44.77673 -69.65246 20423 ft 402 kts 238°
2026-05-04 22:27 44.76161 -69.68569 20963 ft 405 kts 238°
2026-05-04 22:28 44.74652 -69.71879 21467 ft 408 kts 238°
2026-05-04 22:28 44.73110 -69.75260 21953 ft 411 kts 238°
2026-05-04 22:28 44.71558 -69.78658 22425 ft 415 kts 238°
2026-05-04 22:28 44.69988 -69.82091 22889 ft 417 kts 238°
2026-05-04 22:29 44.68410 -69.85537 23338 ft 420 kts 238°
2026-05-04 22:29 44.66819 -69.89006 23761 ft 423 kts 238°
2026-05-04 22:29 44.65219 -69.92492 24174 ft 426 kts 238°
2026-05-04 22:29 44.63605 -69.96005 24589 ft 429 kts 238°
2026-05-04 22:30 44.61980 -69.99535 24979 ft 432 kts 238°
2026-05-04 22:30 44.60893 -70.01896 25236 ft 434 kts 238°
2026-05-04 22:30 44.59252 -70.05457 25608 ft 436 kts 238°
2026-05-04 22:30 44.57054 -70.10217 26089 ft 439 kts 238°
2026-05-04 22:31 44.55928 -70.12651 26331 ft 441 kts 238°
2026-05-04 22:31 44.54252 -70.16273 26661 ft 443 kts 238°
2026-05-04 22:31 44.52589 -70.19863 26987 ft 446 kts 238°
2026-05-04 22:31 44.50893 -70.23517 27322 ft 448 kts 238°
2026-05-04 22:32 44.49188 -70.27188 27649 ft 450 kts 237°
2026-05-04 22:32 44.47477 -70.30866 27953 ft 452 kts 237°
2026-05-04 22:32 44.45755 -70.34563 28241 ft 454 kts 237°
2026-05-04 22:32 44.44018 -70.38289 28489 ft 457 kts 237°
2026-05-04 22:33 44.42274 -70.42024 28741 ft 460 kts 237°
2026-05-04 22:33 44.40516 -70.45783 29065 ft 461 kts 237°
2026-05-04 22:33 44.38761 -70.49532 29413 ft 460 kts 237°
2026-05-04 22:33 44.37005 -70.53278 29785 ft 460 kts 237°
2026-05-04 22:34 44.35251 -70.57014 30165 ft 458 kts 237°
2026-05-04 22:34 44.33524 -70.60687 31228 ft 457 kts 241°
2026-05-04 22:34 44.31807 -70.64320 32141 ft 439 kts 244°
2026-05-04 22:34 44.30142 -70.67832 32864 ft 430 kts 245°
2026-05-04 22:35 44.28498 -70.71312 33212 ft 429 kts 245°
2026-05-04 22:35 44.26855 -70.74803 33406 ft 432 kts 245°
2026-05-04 22:35 44.25201 -70.78316 33641 ft 433 kts 245°
2026-05-04 22:35 44.23547 -70.81816 33977 ft 431 kts 245°
2026-05-04 22:36 44.21900 -70.85292 34279 ft 429 kts 244°
2026-05-04 22:36 44.20245 -70.88781 34449 ft 431 kts 244°
2026-05-04 22:36 44.18609 -70.92229 34633 ft 432 kts 244°
2026-05-04 22:36 44.16945 -70.95728 34885 ft 431 kts 244°
2026-05-04 22:37 44.15287 -70.99209 35111 ft 431 kts 243°
2026-05-04 22:37 44.13626 -71.02692 35324 ft 431 kts 243°
2026-05-04 22:37 44.11968 -71.06163 35563 ft 430 kts 243°
2026-05-04 22:37 44.10308 -71.09634 35676 ft 431 kts 243°
2026-05-04 22:38 44.08643 -71.13100 35756 ft 429 kts 243°
2026-05-04 22:38 44.05351 -71.19921 35753 ft 428 kts 243°
2026-05-04 22:39 44.02028 -71.26819 35772 ft 430 kts 243°
2026-05-04 22:39 43.98686 -71.33754 35793 ft 432 kts 243°
2026-05-04 22:40 43.95344 -71.40681 35790 ft 435 kts 242°
2026-05-04 22:40 43.91965 -71.47661 35774 ft 436 kts 242°
2026-05-04 22:41 43.88567 -71.54666 35779 ft 437 kts 242°
2026-05-04 22:41 43.85172 -71.61650 35782 ft 436 kts 242°
2026-05-04 22:42 43.81777 -71.68615 35754 ft 435 kts 242°
2026-05-04 22:42 43.78417 -71.75491 35757 ft 433 kts 242°
2026-05-04 22:43 43.75044 -71.82380 35759 ft 431 kts 242°
2026-05-04 22:43 43.71683 -71.89228 35758 ft 430 kts 242°
2026-05-04 22:44 43.68326 -71.96052 35761 ft 428 kts 242°
2026-05-04 22:44 43.64974 -72.02853 35759 ft 428 kts 242°
2026-05-04 22:45 43.61639 -72.09602 35768 ft 428 kts 242°
2026-05-04 22:45 43.56584 -72.19804 35766 ft 430 kts 242°
2026-05-04 22:46 43.53196 -72.26618 35769 ft 431 kts 242°
2026-05-04 22:46 43.49795 -72.33446 35774 ft 432 kts 242°
2026-05-04 22:47 43.46397 -72.40249 35778 ft 434 kts 242°
2026-05-04 22:47 43.42971 -72.47094 35780 ft 435 kts 242°
2026-05-04 22:48 43.40589 -72.51843 35779 ft 435 kts 242°
2026-05-04 22:48 43.37138 -72.58711 35777 ft 436 kts 242°
2026-05-04 22:49 43.33679 -72.65578 35778 ft 436 kts 242°
2026-05-04 22:49 43.30240 -72.72389 35781 ft 437 kts 241°
2026-05-04 22:50 43.26774 -72.79238 35781 ft 436 kts 241°
2026-05-04 22:50 43.23310 -72.86066 35797 ft 435 kts 241°
2026-05-04 22:51 43.19847 -72.92878 35790 ft 435 kts 241°
2026-05-04 22:51 43.16406 -72.99632 35800 ft 434 kts 241°
2026-05-04 22:52 43.12943 -73.06413 35794 ft 434 kts 241°
2026-05-04 22:52 43.09473 -73.13194 35791 ft 434 kts 241°
2026-05-04 22:53 43.06026 -73.19911 35783 ft 433 kts 241°
2026-05-04 22:53 43.02574 -73.26621 35798 ft 431 kts 241°
2026-05-04 22:54 42.99114 -73.33338 35778 ft 431 kts 241°
2026-05-04 22:54 42.95670 -73.40009 35791 ft 431 kts 241°
2026-05-04 22:55 42.92199 -73.46716 35803 ft 432 kts 240°
2026-05-04 22:55 42.88716 -73.53430 35792 ft 434 kts 240°
2026-05-04 22:56 42.85223 -73.60147 35792 ft 434 kts 240°
2026-05-04 22:56 42.81743 -73.66829 35780 ft 435 kts 240°
2026-05-04 22:57 42.78234 -73.73533 35787 ft 436 kts 238°
2026-05-04 22:57 42.76058 -73.76470 35779 ft 450 kts 219°
2026-05-04 22:57 42.73226 -73.78401 35784 ft 463 kts 203°
2026-05-04 22:58 42.70032 -73.79245 35785 ft 474 kts 186°
2026-05-04 22:58 42.66718 -73.78869 35802 ft 480 kts 175°
2026-05-04 22:58 42.60141 -73.77374 35791 ft 482 kts 174°
2026-05-04 22:59 42.53525 -73.75869 35679 ft 484 kts 175°
2026-05-04 22:59 42.50170 -73.75152 35093 ft 489 kts 175°
2026-05-04 22:59 42.46800 -73.74450 34493 ft 488 kts 175°
2026-05-04 23:00 42.43441 -73.73756 33852 ft 488 kts 175°
2026-05-04 23:00 42.40072 -73.73061 33109 ft 489 kts 175°
2026-05-04 23:00 42.36705 -73.72364 32403 ft 489 kts 175°
2026-05-04 23:00 42.33348 -73.71667 31984 ft 483 kts 175°
2026-05-04 23:01 42.30078 -73.70987 31468 ft 479 kts 175°
2026-05-04 23:01 42.26809 -73.70307 30986 ft 469 kts 175°
2026-05-04 23:01 42.23609 -73.69641 30305 ft 461 kts 175°
2026-05-04 23:01 42.20449 -73.68987 29518 ft 456 kts 175°
2026-05-04 23:02 42.17322 -73.68342 28689 ft 450 kts 175°
2026-05-04 23:02 42.14243 -73.67707 27886 ft 444 kts 175°
2026-05-04 23:02 42.11204 -73.67081 27097 ft 439 kts 176°
2026-05-04 23:02 42.08200 -73.66462 26351 ft 433 kts 176°
2026-05-04 23:03 42.05235 -73.65853 25611 ft 428 kts 176°
2026-05-04 23:03 42.02346 -73.65259 24904 ft 423 kts 176°
2026-05-04 23:03 41.99449 -73.64665 24194 ft 419 kts 176°
2026-05-04 23:03 41.96585 -73.64077 23512 ft 414 kts 176°
2026-05-04 23:04 41.93746 -73.63496 22721 ft 410 kts 176°
2026-05-04 23:04 41.90945 -73.62922 22028 ft 403 kts 176°
2026-05-04 23:04 41.88188 -73.62358 21339 ft 397 kts 176°
2026-05-04 23:04 41.85472 -73.61803 20652 ft 391 kts 176°
2026-05-04 23:05 41.82826 -73.61262 19979 ft 386 kts 176°
2026-05-04 23:05 41.80187 -73.60959 19317 ft 374 kts 190°
2026-05-04 23:05 41.77743 -73.61843 18666 ft 356 kts 211°
2026-05-04 23:05 41.75713 -73.63616 18067 ft 343 kts 225°
2026-05-04 23:06 41.74144 -73.65956 17279 ft 335 kts 239°
2026-05-04 23:06 41.72899 -73.68568 16527 ft 331 kts 242°
2026-05-04 23:06 41.71708 -73.71192 15832 ft 328 kts 242°
2026-05-04 23:06 41.70518 -73.73779 15166 ft 324 kts 241°
2026-05-04 23:07 41.69329 -73.76322 14507 ft 321 kts 241°
2026-05-04 23:07 41.68141 -73.78841 13857 ft 318 kts 241°
2026-05-04 23:07 41.66751 -73.81089 13152 ft 322 kts 223°
2026-05-04 23:07 41.64812 -73.82612 12465 ft 326 kts 205°
2026-05-04 23:08 41.62597 -73.83364 11782 ft 328 kts 195°
2026-05-04 23:08 41.60376 -73.83917 11288 ft 320 kts 195°
2026-05-04 23:08 41.58207 -73.84436 10862 ft 312 kts 194°
2026-05-04 23:08 41.56103 -73.84950 10543 ft 303 kts 195°
2026-05-04 23:09 41.54044 -73.85465 10418 ft 299 kts 195°
2026-05-04 23:09 41.52012 -73.85985 10281 ft 296 kts 195°
2026-05-04 23:09 41.49999 -73.86503 10153 ft 292 kts 195°
2026-05-04 23:09 41.48027 -73.87010 10036 ft 284 kts 195°
2026-05-04 23:10 41.46106 -73.87504 9844 ft 278 kts 195°
2026-05-04 23:10 41.44190 -73.87863 9534 ft 281 kts 181°
2026-05-04 23:10 41.42307 -73.87111 9289 ft 286 kts 154°
2026-05-04 23:10 41.40671 -73.85676 9034 ft 285 kts 148°
2026-05-04 23:11 41.39028 -73.84137 8733 ft 284 kts 148°
2026-05-04 23:11 41.37425 -73.82653 8453 ft 283 kts 149°
2026-05-04 23:11 41.35803 -73.81177 8172 ft 282 kts 149°
2026-05-04 23:11 41.34184 -73.79701 8021 ft 282 kts 150°
2026-05-04 23:12 41.32550 -73.78219 7991 ft 283 kts 149°
2026-05-04 23:12 41.30943 -73.76761 7977 ft 274 kts 149°
2026-05-04 23:12 41.29399 -73.75359 7960 ft 262 kts 149°
2026-05-04 23:12 41.27929 -73.74027 7955 ft 250 kts 150°
2026-05-04 23:13 41.26525 -73.72756 7958 ft 238 kts 150°
2026-05-04 23:13 41.25166 -73.71530 7976 ft 236 kts 150°
2026-05-04 23:13 41.23795 -73.70296 7998 ft 240 kts 150°
2026-05-04 23:13 41.22344 -73.68996 8036 ft 263 kts 150°
2026-05-04 23:14 41.20819 -73.67623 8017 ft 272 kts 149°
2026-05-04 23:14 41.19251 -73.66207 7981 ft 269 kts 149°
2026-05-04 23:14 41.17714 -73.64818 7945 ft 264 kts 150°
2026-05-04 23:14 41.16205 -73.63458 7886 ft 260 kts 150°
2026-05-04 23:15 41.14721 -73.62120 7657 ft 258 kts 150°
2026-05-04 23:15 41.13225 -73.60805 7380 ft 256 kts 156°
2026-05-04 23:15 41.11553 -73.60190 6878 ft 249 kts 188°
2026-05-04 23:15 41.09902 -73.60765 6330 ft 245 kts 210°
2026-05-04 23:16 41.08426 -73.61881 5735 ft 248 kts 215°
2026-05-04 23:16 41.06968 -73.63123 5214 ft 249 kts 216°
2026-05-04 23:16 41.05519 -73.64356 4768 ft 247 kts 216°
2026-05-04 23:16 41.04081 -73.65588 4300 ft 245 kts 215°
2026-05-04 23:17 41.02677 -73.66795 4066 ft 231 kts 214°
2026-05-04 23:17 41.01809 -73.67539 4012 ft 220 kts 215°
2026-05-04 23:17 41.00114 -73.68996 3999 ft 219 kts 215°
2026-05-04 23:17 40.98845 -73.70087 3985 ft 216 kts 215°
2026-05-04 23:18 40.97570 -73.71181 3703 ft 225 kts 214°
2026-05-04 23:18 40.96256 -73.72308 3236 ft 222 kts 215°
2026-05-04 23:18 40.95413 -73.73029 3074 ft 212 kts 214°
2026-05-04 23:18 40.94232 -73.74039 2985 ft 195 kts 215°
2026-05-04 23:19 40.93109 -73.74989 2996 ft 191 kts 214°
2026-05-04 23:19 40.91982 -73.75928 2867 ft 193 kts 214°
2026-05-04 23:19 40.90868 -73.76872 2578 ft 183 kts 215°
2026-05-04 23:19 40.89846 -73.77724 2396 ft 163 kts 214°
2026-05-04 23:20 40.88949 -73.78465 2284 ft 140 kts 214°
2026-05-04 23:20 40.88164 -73.79113 2158 ft 133 kts 215°
2026-05-04 23:20 40.87387 -73.79756 2056 ft 130 kts 214°
2026-05-04 23:20 40.86627 -73.80385 1901 ft 128 kts 214°
2026-05-04 23:21 40.85874 -73.81006 1744 ft 129 kts 213°
2026-05-04 23:21 40.85114 -73.81635 1550 ft 128 kts 213°
2026-05-04 23:21 40.84358 -73.82259 1399 ft 129 kts 213°
2026-05-04 23:21 40.83582 -73.82900 1210 ft 130 kts 213°
2026-05-04 23:22 40.82822 -73.83528 1030 ft 126 kts 211°
2026-05-04 23:22 40.82089 -73.84134 879 ft 123 kts 211°
2026-05-04 23:22 40.81337 -73.84755 740 ft 132 kts 210°
2026-05-04 23:22 40.80552 -73.85397 523 ft 136 kts 211°
2026-05-04 23:23 40.79755 -73.86046 291 ft 133 kts 211°
2026-05-04 23:23 40.79009 -73.86674 147 ft 122 kts 212°
2026-05-04 23:23 40.78331 -73.87245 13 ft 106 kts 210°
2026-05-04 23:23 40.77806 -73.87680 17 ft 68 kts 212°
2026-05-04 23:24 40.77582 -73.87835 21 ft 13 kts 169°
2026-05-04 23:24 40.77543 -73.87766 21 ft 9 kts 90°
2026-05-04 23:24 40.77554 -73.87739 21 ft 5 kts 51°
2026-05-04 23:24 40.77585 -73.87710 21 ft 5 kts 30°
2026-05-04 23:25 40.77608 -73.87674 23 ft 5 kts 74°
2026-05-04 23:25 40.77608 -73.87625 22 ft 5 kts 83°
2026-05-04 23:25 40.77631 -73.87589 23 ft 5 kts 36°
2026-05-04 23:25 40.77663 -73.87563 22 ft 6 kts 30°
2026-05-04 23:26 40.77702 -73.87531 20 ft 7 kts 34°
2026-05-04 23:26 40.77721 -73.87466 18 ft 9 kts 106°
2026-05-04 23:26 40.77687 -73.87417 18 ft 6 kts 135°
2026-05-04 23:26 40.77651 -73.87385 18 ft 6 kts 161°
2026-05-04 23:27 40.77635 -73.87381 18 ft 0 kts 173°